SR5NLK-1 Weather Reports


time (UTC)temp
F
wind
direction
speed
knots
gust
knots
rain 1hr
in
rain 24hr
in
rain mn
in
humidity
%
barometer
mb
20260831024950 61 135 1.7 1.7 0.00 0.00 0.00 78 1048.7
20260831024849 61 135 1.7 1.7 0.00 0.00 0.00 78 1027.1
20260831024450 61 112 0.9 1.7 0.00 0.00 0.00 78 1053.2
20260831023951 61 135 1.7 2.6 0.00 0.00 0.00 78 1068.9
20260831023450 61 112 0.0 1.7 0.00 0.00 0.00 77 1033.5
20260831022950 61 112 0.0 0.0 0.00 0.00 0.00 77 1028.8
20260831022450 61 67 0.0 0.0 0.00 0.00 0.00 77 1081.5
20260831021950 62 112 0.0 0.0 0.00 0.00 0.00 77 1069.0
20260831021549 62 112 0.0 0.0 0.00 0.00 0.00 76 1053.2
20260831021450 62 112 0.0 0.0 0.00 0.00 0.00 76 1089.3
20260831020950 62 112 0.0 0.0 0.00 0.00 0.00 76 1072.1
20260831020450 62 112 0.0 0.0 0.00 0.00 0.00 76 1084.7
20260831015950 62 45 0.0 0.9 0.00 0.00 0.00 75 998.0
20260831015450 62 90 0.9 1.7 0.00 0.00 0.00 75 1078.4
20260831014950 62 90 0.9 0.9 0.00 0.00 0.00 75 1081.5
20260831014450 63 157 0.0 1.7 0.00 0.00 0.00 75 1027.2
20260831014249 63 135 0.0 1.7 0.00 0.00 0.00 75 1058.1
20260831013950 63 180 0.9 1.7 0.00 0.00 0.00 75 1078.4
20260831013450 63 225 0.0 0.9 0.00 0.00 0.00 75 1065.8
20260831013021 63 225 0.0 0.0 0.00 0.00 0.00 74 1083.1
20260831012950 63 225 0.0 0.0 0.00 0.00 0.00 74 1083.1
20260831012450 63 67 0.0 0.0 0.00 0.00 0.00 74 1062.7
20260831011950 63 45 0.0 0.0 0.00 0.00 0.00 74 1078.4
20260831011450 63 45 0.0 0.0 0.00 0.00 0.00 74 1065.8
20260831010949 63 202 0.0 1.7 0.00 0.00 0.00 73 1046.9
20260831010450 63 157 0.0 0.9 0.00 0.00 0.00 73 1084.5
20260831005950 63 157 0.0 0.0 0.00 0.00 0.00 73 1069.0
20260831005450 63 180 0.0 1.7 0.00 0.00 0.00 72 1084.6
20260831004950 64 225 0.0 1.7 0.00 0.00 0.00 72 1028.8
20260831004451 64 202 0.0 0.9 0.00 0.00 0.00 71 1059.5
20260831003950 64 180 0.0 0.9 0.00 0.00 0.00 71 1038.2
20260831003650 64 180 0.0 0.9 0.00 0.00 0.00 71 1067.4
20260831003451 64 157 0.0 1.7 0.00 0.00 0.00 71 1056.4
20260831002950 64 180 1.7 1.7 0.00 0.00 0.00 70 1076.8
20260831002450 64 202 0.0 1.7 0.00 0.00 0.00 70 1062.7
20260831001950 64 135 0.9 1.7 0.00 0.00 0.00 70 1072.1
20260831001450 64 157 0.0 0.0 0.00 0.00 0.00 69 1047.6
20260831000950 65 135 0.0 1.7 0.00 0.00 0.00 69 1080.4
20260831000450 65 180 0.0 1.7 0.00 0.00 0.00 69 1036.6
20260831000349 65 202 0.0 1.7 0.00 0.00 0.00 68 991.0
20260830235950 65 180 0.9 3.5 0.00 0.00 0.00 68 1075.2
20260830235450 65 157 0.0 3.5 0.00 0.00 0.00 68 1065.8
20260830234950 65 180 2.6 4.3 0.00 0.00 0.00 68 1067.4
20260830234450 65 180 1.7 4.3 0.00 0.00 0.00 68 1062.7
20260830233950 65 180 1.7 5.2 0.00 0.00 0.00 68 1062.7
20260830233450 65 180 3.5 6.1 0.00 0.00 0.00 67 1072.1
20260830233049 66 157 0.9 7.0 0.00 0.00 0.00 67 1076.8
20260830232950 66 225 3.5 7.0 0.00 0.00 0.00 67 1084.6
20260830232450 66 180 5.2 5.2 0.00 0.00 0.00 67 1069.0
20260830231950 66 202 5.2 6.1 0.00 0.00 0.00 67 1067.4
20260830231450 66 157 1.7 5.2 0.00 0.00 0.00 66 1062.7
20260830230950 66 202 1.7 5.2 0.00 0.00 0.00 66 1075.3
20260830230450 66 202 2.6 5.2 0.00 0.00 0.00 66 1073.6
20260830225950 66 202 4.3 5.2 0.00 0.00 0.00 65 1072.1
20260830225750 66 202 0.9 5.2 0.00 0.00 0.00 65 1069.0
20260830225450 66 180 1.7 4.3 0.00 0.00 0.00 65 1065.8
20260830224951 66 180 1.7 4.3 0.00 0.00 0.00 65 1062.7
20260830224451 67 225 2.6 4.3 0.00 0.00 0.00 64 1072.1
20260830223951 67 202 1.7 6.1 0.00 0.00 0.00 64 1071.4
20260830223451 67 180 1.7 3.5 0.00 0.00 0.00 64 1043.8
20260830222951 67 180 1.7 5.2 0.00 0.00 0.00 63 1047.9
20260830222450 67 180 3.5 5.2 0.00 0.00 0.00 63 1051.8
20260830221951 68 135 2.6 4.3 0.00 0.00 0.00 63 1068.9
20260830221451 68 157 4.3 5.2 0.00 0.00 0.00 63 1073.7
20260830220951 68 180 3.5 3.5 0.00 0.00 0.00 63 1067.4
20260830220451 68 202 0.9 5.2 0.00 0.00 0.00 62 1056.4
20260830215951 68 202 2.6 3.5 0.00 0.00 0.00 62 1076.8
20260830215451 68 180 1.7 5.2 0.00 0.00 0.00 62 1036.6
20260830215150 68 202 1.7 5.2 0.00 0.00 0.00 62 1059.5
20260830214951 68 180 2.6 4.3 0.00 0.00 0.00 62 1078.4
20260830214451 68 180 3.5 4.3 0.00 0.00 0.00 62 1064.8
20260830213951 68 202 3.5 5.2 0.00 0.00 0.00 61 1070.6
20260830213451 68 180 0.0 5.2 0.00 0.00 0.00 61 1028.7
20260830212951 68 157 5.2 5.2 0.00 0.00 0.00 61 1072.1
20260830212451 68 180 1.7 4.3 0.00 0.00 0.00 60 986.1
20260830211951 69 157 1.7 5.2 0.00 0.00 0.00 60 1081.5
20260830211850 69 202 2.6 5.2 0.00 0.00 0.00 60 1072.1
20260830211451 69 157 2.6 5.2 0.00 0.00 0.00 60 1081.5
20260830210951 69 157 3.5 4.3 0.00 0.00 0.00 60 1064.2
20260830210451 69 180 2.6 3.5 0.00 0.00 0.00 60 1069.0
20260830205951 69 157 1.7 3.5 0.00 0.00 0.00 60 1056.3
20260830205451 69 157 0.9 2.6 0.00 0.00 0.00 60 1072.1
20260830204951 69 135 2.6 2.6 0.00 0.00 0.00 60 1056.4
20260830204550 69 135 0.9 2.6 0.00 0.00 0.00 60 1020.8
20260830204451 69 135 0.0 2.6 0.00 0.00 0.00 60 986.9
20260830203951 69 157 1.7 1.7 0.00 0.00 0.00 60 1065.8
20260830203451 69 157 0.9 1.7 0.00 0.00 0.00 60 1079.9
20260830202951 70 135 0.9 2.6 0.00 0.00 0.00 59 1022.5
20260830202451 70 135 0.0 2.6 0.00 0.00 0.00 60 996.4
20260830201951 70 112 0.0 2.6 0.00 0.00 0.00 59 1065.8
20260830201451 70 135 2.6 2.6 0.00 0.00 0.00 60 1050.1
20260830201250 70 135 0.9 2.6 0.00 0.00 0.00 60 1069.0
20260830200951 70 135 2.6 3.5 0.00 0.00 0.00 60 1046.9
20260830200451 70 157 1.7 2.6 0.00 0.00 0.00 60 1059.5
20260830195951 70 112 1.7 2.6 0.00 0.00 0.00 60 1075.2
20260830195451 69 135 0.0 3.5 0.00 0.00 0.00 60 1068.9
20260830195027 69 135 1.7 2.6 0.00 0.00 0.00 59 1065.8
20260830194951 69 135 1.7 2.6 0.00 0.00 0.00 59 1065.8
20260830194451 69 135 1.7 1.7 0.00 0.00 0.00 59 1053.3
20260830193950 69 90 1.7 2.6 0.00 0.00 0.00 59 1038.2
20260830193451 70 135 1.7 1.7 0.00 0.00 0.00 58 1062.7
20260830192951 70 135 1.7 1.7 0.00 0.00 0.00 58 1059.5
20260830192451 70 112 1.7 1.7 0.00 0.00 0.00 58 1031.9
20260830191951 70 112 0.9 1.7 0.00 0.00 0.00 58 1069.0
20260830191451 70 112 0.0 1.7 0.00 0.00 0.00 58 1030.4
20260830190951 70 135 0.0 1.7 0.00 0.00 0.00 58 1084.6
20260830190650 70 112 1.7 1.7 0.00 0.00 0.00 57 1081.5
20260830190451 70 90 1.7 1.7 0.00 0.00 0.00 57 1062.7
20260830185951 70 135 0.9 0.9 0.00 0.00 0.00 56 1067.5
20260830185451 71 90 0.9 1.7 0.00 0.00 0.00 56 1059.5
20260830184951 71 135 1.7 1.7 0.00 0.00 0.00 55 1050.1
20260830184451 71 112 1.7 1.7 0.00 0.00 0.00 55 1062.6
20260830183951 71 90 0.0 1.7 0.00 0.00 0.00 54 1028.8
20260830183451 72 135 0.9 1.7 0.00 0.00 0.00 53 1083.1
20260830183350 72 112 0.0 1.7 0.00 0.00 0.00 53 1081.5
20260830182951 72 112 0.0 0.9 0.00 0.00 0.00 53 1041.3
20260830182451 72 90 0.0 0.9 0.00 0.00 0.00 52 1064.3
20260830181951 73 112 0.0 0.9 0.00 0.00 0.00 51 1075.2
20260830181451 73 135 0.0 1.7 0.00 0.00 0.00 50 1051.4
20260830180951 74 90 0.0 1.7 0.00 0.00 0.00 49 1035.0
20260830180451 74 135 0.0 0.9 0.00 0.00 0.00 48 1054.6
20260830180050 75 112 0.9 1.7 0.00 0.00 0.00 48 1084.7
20260830175951 75 157 0.9 1.7 0.00 0.00 0.00 48 1075.2
20260830175451 75 112 1.7 2.6 0.00 0.00 0.00 47 1069.0
20260830174951 75 67 0.0 1.7 0.00 0.00 0.00 47 1068.9
20260830174451 76 112 0.0 1.7 0.00 0.00 0.00 46 1010.5
20260830173951 76 157 0.0 1.7 0.00 0.00 0.00 46 1083.1
20260830173451 76 112 1.7 2.6 0.00 0.00 0.00 45 1071.0
20260830172951 77 135 1.7 4.3 0.00 0.00 0.00 45 1067.4
20260830172750 77 112 1.7 4.3 0.00 0.00 0.00 45 1076.8
20260830172451 77 135 1.7 3.5 0.00 0.00 0.00 45 1065.7
20260830171951 77 180 0.0 3.5 0.00 0.00 0.00 44 1073.8
20260830171451 78 157 0.9 3.5 0.00 0.00 0.00 44 1052.4
20260830170951 78 112 0.0 2.6 0.00 0.00 0.00 44 1062.7
20260830170451 79 135 1.7 3.5 0.00 0.00 0.00 43 1045.0
20260830165951 79 112 1.7 3.5 0.00 0.00 0.00 43 1043.7
20260830165450 79 157 2.6 3.5 0.00 0.00 0.00 43 1059.5
20260830164951 79 135 2.6 2.6 0.00 0.00 0.00 42 1086.4
20260830164451 79 157 1.7 2.6 0.00 0.00 0.00 42 1062.7
20260830163951 80 157 1.7 3.5 0.00 0.00 0.00 41 1075.2
20260830163451 80 135 2.6 3.5 0.00 0.00 0.00 41 1069.0
20260830162951 81 157 2.6 3.5 0.00 0.00 0.00 40 1072.1
20260830162451 82 157 2.6 4.3 0.00 0.00 0.00 40 1075.2
20260830162150 82 157 1.7 4.3 0.00 0.00 0.00 39 1069.0
20260830161951 82 180 1.7 5.2 0.00 0.00 0.00 39 1068.9
20260830161451 82 157 1.7 4.3 0.00 0.00 0.00 39 1072.1
20260830160951 83 180 1.7 5.2 0.00 0.00 0.00 38 1062.7
20260830160451 84 157 2.6 5.2 0.00 0.00 0.00 38 1073.8
20260830155951 84 135 0.9 4.3 0.00 0.00 0.00 38 1065.8
20260830155451 84 157 3.5 4.3 0.00 0.00 0.00 37 1062.7
20260830154951 84 180 1.7 5.2 0.00 0.00 0.00 37 1062.7
20260830154850 84 202 4.3 5.2 0.00 0.00 0.00 37 1069.0
20260830154451 84 112 4.3 4.3 0.00 0.00 0.00 37 1062.7
20260830153951 84 180 2.6 5.2 0.00 0.00 0.00 37 1065.8
20260830153451 84 225 2.6 6.1 0.00 0.00 0.00 36 1065.8
20260830152951 86 157 2.6 10.4 0.00 0.00 0.00 35 1062.7
20260830152451 87 157 1.7 7.0 0.00 0.00 0.00 34 1061.1
20260830151951 88 112 2.6 8.7 0.00 0.00 0.00 34 1059.5
20260830151550 88 202 5.2 11.3 0.00 0.00 0.00 34 1087.8
20260830151451 88 180 5.2 11.3 0.00 0.00 0.00 34 1075.2
20260830150951 88 135 3.5 10.4 0.00 0.00 0.00 34 1062.6
20260830150451 88 180 10.4 10.4 0.00 0.00 0.00 35 1089.4
20260830145951 87 202 1.7 10.4 0.00 0.00 0.00 34 1069.0
20260830145451 87 247 3.5 9.6 0.00 0.00 0.00 34 1059.5
20260830144951 87 202 4.3 13.9 0.00 0.00 0.00 34 1065.8
20260830144451 88 180 7.0 12.2 0.00 0.00 0.00 34 1069.0
20260830144250 88 180 10.4 12.2 0.00 0.00 0.00 34 1065.8
20260830143951 88 135 7.8 9.6 0.00 0.00 0.00 34 1044.5
20260830143451 89 135 3.5 9.6 0.00 0.00 0.00 34 1062.7
20260830142952 89 157 4.3 9.6 0.00 0.00 0.00 34 1075.2
20260830142451 88 202 7.0 9.6 0.00 0.00 0.00 35 1059.5
20260830141951 87 225 7.8 7.8 0.00 0.00 0.00 36 1069.0
20260830141451 86 135 1.7 9.6 0.00 0.00 0.00 36 1056.4
20260830140950 86 157 7.0 9.6 0.00 0.00 0.00 36 1086.2
20260830140451 86 202 3.5 10.4 0.00 0.00 0.00 36 1073.8
20260830135952 87 157 9.6 11.3 0.00 0.00 0.00 35 1072.0
20260830135451 87 180 3.5 13.0 0.00 0.00 0.00 36 1068.9
20260830134952 87 202 7.0 12.2 0.00 0.00 0.00 36 1056.4
20260830134452 86 180 2.6 8.7 0.00 0.00 0.00 36 1062.7
20260830133952 86 225 0.9 11.3 0.00 0.00 0.00 36 1073.7
20260830133651 86 180 9.6 9.6 0.00 0.00 0.00 36 1072.9
20260830133452 86 202 4.3 8.7 0.00 0.00 0.00 36 991.7
20260830132952 86 270 0.9 12.2 0.00 0.00 0.00 36 1065.8
20260830132452 86 180 2.6 9.6 0.00 0.00 0.00 37 1080.0
20260830131952 86 247 9.6 11.3 0.00 0.00 0.00 37 1017.3
20260830131452 86 135 4.3 12.2 0.00 0.00 0.00 36 1065.8
20260830130952 86 202 1.7 9.6 0.00 0.00 0.00 37 1059.5
20260830130452 86 157 2.6 8.7 0.00 0.00 0.00 37 1025.5
20260830130351 86 180 7.0 8.7 0.00 0.00 0.00 37 1053.2
20260830125952 86 135 5.2 7.0 0.00 0.00 0.00 37 1069.0
20260830125452 85 180 4.3 6.1 0.00 0.00 0.00 38 1036.5
20260830124952 85 157 3.5 10.4 0.00 0.00 0.00 38 1062.6
20260830124452 85 157 10.4 12.2 0.00 0.00 0.00 38 1082.4
20260830123952 85 180 2.6 9.6 0.00 0.00 0.00 38 1021.4
20260830123452 85 247 5.2 13.0 0.00 0.00 0.00 38 1081.5
20260830123051 84 202 9.6 12.2 0.00 0.00 0.00 38 1062.8
20260830122952 84 157 2.6 13.0 0.00 0.00 0.00 38 1081.6
20260830122452 85 202 5.2 10.4 0.00 0.00 0.00 39 1026.3
20260830121952 85 135 3.5 14.8 0.00 0.00 0.00 39 1059.5
20260830121452 85 180 7.0 8.7 0.00 0.00 0.00 39 1058.6
20260830121023 85 180 8.7 10.4 0.00 0.00 0.00 39 1034.7
20260830120952 85 180 8.7 10.4 0.00 0.00 0.00 39 1034.7
20260830120452 85 180 5.2 10.4 0.00 0.00 0.00 39 1086.9
20260830115952 84 180 2.6 7.8 0.00 0.00 0.00 39 1011.8
20260830115751 84 180 7.0 7.8 0.00 0.00 0.00 39 1065.8
20260830115452 84 157 1.7 9.6 0.00 0.00 0.00 39 1069.7
20260830114952 84 202 9.6 12.2 0.00 0.00 0.00 39 1049.3
20260830114452 84 247 7.8 11.3 0.00 0.00 0.00 39 991.7
20260830113952 84 225 5.2 10.4 0.00 0.00 0.00 39 1012.0
20260830112952 84 225 5.2 10.4 0.00 0.00 0.00 39 997.8
20260830112451 84 157 10.4 13.0 0.00 0.00 0.00 38 1077.4
20260830112350 85 157 10.4 14.8 0.00 0.00 0.00 38 1069.0
20260830111952 85 157 10.4 14.8 0.00 0.00 0.00 38 1069.0
20260830111452 86 112 5.2 9.6 0.00 0.00 0.00 38 1043.8
20260830111107 86 157 6.1 9.6 0.00 0.00 0.00 38 1066.2
20260830110952 86 157 5.2 15.6 0.00 0.00 0.00 38 1042.3
20260830110452 86 270 2.6 12.2 0.00 0.00 0.00 38 1085.5
20260830105952 86 157 6.1 9.6 0.00 0.00 0.00 38 1066.2
20260830105151 86 225 5.2 9.6 0.00 0.00 0.00 38 994.6
20260830105129 86 202 5.2 9.6 0.00 0.00 0.00 38 1039.2
20260830104952 86 202 5.2 9.6 0.00 0.00 0.00 38 1039.2
20260830104452 86 135 3.5 8.7 0.00 0.00 0.00 39 1075.0
20260830103952 85 202 6.1 7.8 0.00 0.00 0.00 40 1074.4
20260830103452 84 135 2.6 9.6 0.00 0.00 0.00 40 1083.6
20260830102952 84 135 8.7 11.3 0.00 0.00 0.00 40 1055.9
20260830102452 84 180 11.3 11.3 0.00 0.00 0.00 40 1022.5
20260830101952 85 202 3.5 12.2 0.00 0.00 0.00 40 1041.4
20260830101851 85 292 3.5 13.0 0.00 0.00 0.00 40 1031.9
20260830101452 85 135 7.0 13.9 0.00 0.00 0.00 41 1035.9
20260830101024 85 135 4.3 7.8 0.00 0.00 0.00 41 996.4
20260830100952 85 135 4.3 7.8 0.00 0.00 0.00 41 996.4
20260830100712 84 90 5.2 8.7 0.00 0.08 0.00 42 1060.1
20260830100638 84 90 5.2 8.7 0.00 0.08 0.00 42 1060.1
20260830100452 85 157 3.5 9.6 0.00 0.00 0.00 41 1035.2
20260830095952 84 90 5.2 8.7 0.00 0.08 0.00 42 1060.1
20260830095553 84 112 7.0 10.4 0.00 0.08 0.00 42 1102.6
20260830095452 84 112 7.0 10.4 0.00 0.08 0.00 42 1102.6
20260830094952 84 157 10.4 10.4 0.00 0.08 0.00 42 1070.9
20260830094918 84 157 3.5 9.6 0.00 0.08 0.00 43 1040.6
20260830094551 84 157 7.0 9.6 0.00 0.08 0.00 43 1083.2
20260830094452 84 157 3.5 9.6 0.00 0.08 0.00 43 1040.6
20260830093952 84 225 6.1 8.7 0.00 0.08 0.00 43 1069.0
20260830093525 84 202 3.5 12.2 0.00 0.08 0.00 43 1069.0
20260830093452 84 202 3.5 12.2 0.00 0.08 0.00 43 1069.0
20260830093032 84 247 2.6 14.8 0.00 0.08 0.00 43 1086.1
20260830092952 84 247 2.6 14.8 0.00 0.08 0.00 43 1086.1
20260830092452 84 112 10.4 10.4 0.00 0.08 0.00 44 990.1
20260830091523 83 157 0.9 7.0 0.00 0.08 0.00 45 1082.1
20260830091452 83 157 0.9 7.0 0.00 0.08 0.00 45 1082.1
20260830091251 83 135 0.9 7.0 0.00 0.08 0.00 45 1056.5
20260830091023 83 135 0.9 7.0 0.00 0.08 0.00 45 1071.9
20260830090952 83 135 0.9 7.0 0.00 0.08 0.00 45 1071.9
20260830090452 84 157 7.0 9.6 0.00 0.08 0.00 44 1075.3
20260830085952 84 180 9.6 9.6 0.00 0.12 0.00 44 1080.3
20260830085530 84 157 4.3 7.0 0.00 0.12 0.00 44 1027.0
20260830085452 84 157 4.3 7.0 0.00 0.12 0.00 44 1027.0
20260830084952 84 180 5.2 8.7 0.00 0.12 0.00 44 1072.1
20260830084525 84 157 0.9 3.5 0.00 0.12 0.00 44 1047.6
20260830084452 84 157 0.9 3.5 0.00 0.12 0.00 44 1047.6
20260830084026 84 135 3.5 4.3 0.00 0.12 0.00 43 1065.8
20260830083951 84 135 3.5 4.3 0.00 0.12 0.00 43 1065.8
20260830083452 85 112 1.7 7.0 0.00 0.12 0.00 43 1074.1
20260830082952 84 225 1.7 5.2 0.00 0.12 0.00 45 1048.7
20260830082452 82 157 2.6 2.6 0.00 0.12 0.00 46 1045.3
20260830082026 82 180 1.7 7.0 0.00 0.12 0.00 45 1062.7
20260830081952 82 180 1.7 7.0 0.00 0.12 0.00 45 1062.7
20260830081529 82 180 0.9 3.5 0.00 0.12 0.00 45 1046.9
20260830081452 82 180 0.9 3.5 0.00 0.12 0.00 45 1046.9
20260830081025 82 225 0.9 6.1 0.00 0.12 0.00 43 1062.7
20260830080952 82 225 0.9 6.1 0.00 0.12 0.00 43 1062.7
20260830080651 83 135 3.5 7.0 0.00 0.12 0.00 41 1018.2
20260830080546 84 112 5.2 7.0 0.00 0.12 0.00 42 1024.1
20260830080452 84 112 5.2 7.0 0.00 0.12 0.00 42 1024.1
20260830075952 85 157 5.2 6.1 0.00 0.14 0.00 41 1062.7
20260830075539 87 202 0.9 5.2 0.00 0.14 0.00 41 993.5
20260830075452 87 202 0.9 5.2 0.00 0.14 0.00 41 993.5
20260830075136 87 157 0.9 7.0 0.00 0.14 0.00 41 1081.5
20260830074952 87 157 0.9 7.0 0.00 0.14 0.00 41 1081.5
20260830074840 88 180 0.9 5.2 0.00 0.14 0.00 40 1039.9
20260830074835 89 157 5.2 6.1 0.00 0.14 0.00 40 1080.0
20260830074734 88 180 0.9 5.2 0.00 0.14 0.00 40 1039.9
20260830074556 87 202 1.7 5.2 0.00 0.14 0.00 42 1062.7
20260830074519 89 157 2.6 4.3 0.00 0.14 0.00 41 1083.3
20260830074452 88 180 0.9 5.2 0.00 0.14 0.00 40 1039.9
20260830074328 89 157 2.6 4.3 0.00 0.14 0.00 41 1083.3
20260830074249 90 112 0.0 4.3 0.00 0.14 0.00 41 1041.7
20260830074230 89 202 1.7 2.6 0.00 0.14 0.00 42 1011.4
20260830074144 89 180 0.0 1.7 0.00 0.18 0.00 43 1059.5
20260830074128 88 112 1.7 2.6 0.00 0.18 0.00 43 1043.8
20260830073952 89 157 5.2 6.1 0.00 0.14 0.00 40 1080.0
20260830073452 89 157 1.7 7.0 0.00 0.14 0.00 41 1071.9
20260830073351 89 202 1.7 7.0 0.00 0.14 0.00 41 1068.9
20260830073158 91 180 3.5 3.5 0.00 0.18 0.00 42 1066.8
20260830073100 91 180 3.5 3.5 0.00 0.18 0.00 42 1066.8
20260830072952 88 180 0.9 6.1 0.00 0.14 0.00 42 1053.2
20260830072836 90 202 0.0 2.6 0.00 0.18 0.00 44 1076.6
20260830072453 87 202 1.7 5.2 0.00 0.14 0.00 42 1062.7
20260830072352 87 225 0.9 3.5 0.00 0.18 0.00 47 1043.7
20260830071952 87 135 1.7 4.3 0.00 0.14 0.00 42 1065.8
20260830071644 86 135 0.9 1.7 0.00 0.18 0.00 48 1059.9
20260830071524 86 135 0.9 1.7 0.00 0.18 0.00 48 1059.9
20260830071452 89 157 2.6 4.3 0.00 0.14 0.00 41 1083.3
20260830070952 90 112 0.0 4.3 0.00 0.14 0.00 41 1041.7
20260830070524 89 202 1.7 2.6 0.00 0.14 0.00 42 1011.4
20260830070452 89 202 1.7 2.6 0.00 0.14 0.00 42 1011.4
20260830070051 89 157 1.7 1.7 0.00 0.14 0.00 42 1081.5
20260830065952 89 180 0.9 1.7 0.00 0.18 0.00 42 1063.8
20260830065523 89 180 0.0 1.7 0.00 0.18 0.00 43 1059.5
20260830065452 89 180 0.0 1.7 0.00 0.18 0.00 43 1059.5
20260830064952 88 112 1.7 2.6 0.00 0.18 0.00 43 1043.8
20260830064452 89 180 0.0 3.5 0.00 0.18 0.00 42 1065.8
20260830063952 91 180 3.5 3.5 0.00 0.18 0.00 42 1066.8
20260830063452 91 180 0.9 1.7 0.00 0.18 0.00 44 1059.9
20260830062952 90 202 0.0 2.6 0.00 0.18 0.00 44 1076.6
20260830062751 89 90 0.0 2.6 0.00 0.18 0.00 45 1033.8
20260830062452 89 135 1.7 1.7 0.00 0.18 0.00 46 1004.3
20260830061952 87 225 0.9 3.5 0.00 0.18 0.00 47 1043.7
20260830061523 86 135 0.9 1.7 0.00 0.18 0.00 48 1059.9
20260830061452 86 135 0.9 1.7 0.00 0.18 0.00 48 1059.9
20260830060952 86 180 0.0 0.9 0.00 0.18 0.00 49 1062.6
20260830060729 86 135 0.0 1.7 0.00 0.18 0.00 49 1017.3
20260830060647 86 135 0.0 1.7 0.00 0.18 0.00 49 1017.3
20260830060452 86 135 0.0 1.7 0.00 0.18 0.00 49 1017.3
20260830055952 85 157 0.0 2.6 0.00 0.18 0.00 51 1053.8
20260830055526 84 157 0.9 1.7 0.00 0.18 0.00 54 1022.5
20260830055451 84 157 0.9 1.7 0.00 0.18 0.00 54 1022.5
20260830055031 82 202 0.9 1.7 0.00 0.18 0.00 56 1026.3
20260830054952 82 202 0.9 1.7 0.00 0.18 0.00 56 1026.3
20260830054636 81 157 0.9 4.3 0.00 0.18 0.00 58 1053.2
20260830054544 81 157 0.9 4.3 0.00 0.18 0.00 58 1053.2
20260830054452 81 157 0.9 4.3 0.00 0.18 0.00 58 1053.2
20260830053952 79 157 1.7 4.3 0.00 0.18 0.00 62 1043.8
20260830053617 77 202 0.9 3.5 0.00 0.18 0.00 64 1040.6
20260830053539 77 202 0.9 3.5 0.00 0.18 0.00 64 1040.6
20260830053452 77 202 0.9 3.5 0.00 0.18 0.00 64 1040.6
20260830052952 76 157 0.9 2.6 0.00 0.18 0.00 68 1061.2
20260830052703 75 180 0.9 4.3 0.00 0.18 0.00 70 1072.1
20260830052600 75 180 0.9 4.3 0.00 0.18 0.00 70 1072.1
20260830052452 75 180 0.9 4.3 0.00 0.18 0.00 70 1072.1
20260830052151 74 180 1.7 3.5 0.00 0.18 0.00 71 1022.4
20260830051952 74 135 0.9 2.6 0.00 0.18 0.00 71 993.7
20260830051452 75 135 0.9 1.7 0.00 0.18 0.00 75 1050.1
20260830051110 73 157 0.9 1.7 0.00 0.18 0.00 81 1053.2
20260830050952 73 157 0.9 1.7 0.00 0.18 0.00 81 1053.2
20260830050452 72 180 0.0 0.9 0.00 0.18 0.00 88 1053.2
20260830045952 70 157 0.9 0.9 0.00 0.18 0.00 92 1050.1
20260830045539 69 112 0.9 0.9 0.00 0.18 0.00 93 1059.5
20260830045452 69 112 0.9 0.9 0.00 0.18 0.00 93 1059.5
20260830045314 67 135 0.0 0.0 0.00 0.18 0.00 94 1059.5
20260830045226 65 112 0.0 0.0 0.00 0.18 0.00 94 1056.4
20260830045224 62 112 0.0 0.9 0.00 0.18 0.00 94 1031.1
20260830045143 58 157 0.0 0.0 0.00 0.18 0.00 92 1059.5
20260830044952 67 135 0.0 0.0 0.00 0.18 0.00 94 1059.5
20260830044852 67 135 0.0 0.0 0.00 0.18 0.00 94 1065.8
20260830044823 55 135 0.0 1.7 0.00 0.18 0.00 90 1062.7
20260830044452 65 112 0.0 0.0 0.00 0.18 0.00 94 1056.4
20260830044408 55 135 0.0 1.7 0.00 0.18 0.00 90 1065.8
20260830044325 55 157 0.0 0.9 0.00 0.18 0.00 90 1065.8
20260830044150 55 180 0.0 0.0 0.00 0.18 0.00 90 1072.1
20260830044112 55 157 0.0 0.9 0.00 0.18 0.00 90 1043.8
20260830044048 55 157 0.0 2.6 0.00 0.18 0.00 90 1075.3
20260830043952 62 112 0.0 0.9 0.00 0.18 0.00 94 1031.1
20260830043452 58 157 0.0 0.0 0.00 0.18 0.00 92 1059.5
20260830042953 56 157 0.0 0.9 0.00 0.18 0.00 91 1065.8
20260830042452 55 135 0.0 1.7 0.00 0.18 0.00 90 1062.7
20260830041953 55 135 0.0 0.0 0.00 0.18 0.00 90 1056.4
20260830041552 55 135 0.0 0.0 0.00 0.18 0.00 90 1059.5
20260830041453 55 157 0.0 0.0 0.00 0.18 0.00 90 1065.8
20260830040953 55 135 0.0 1.7 0.00 0.18 0.00 90 1065.8
20260830040857 55 157 0.9 1.7 0.00 0.18 0.00 90 1065.8
20260830040526 55 157 0.9 1.7 0.00 0.18 0.00 90 1065.8
20260830040452 55 157 0.0 0.9 0.00 0.18 0.00 90 1065.8
20260830035953 55 180 0.0 1.7 0.00 0.18 0.00 90 1053.2
20260830035453 55 180 1.7 1.7 0.00 0.18 0.00 90 1056.4
20260830035310 55 202 1.7 2.6 0.00 0.18 0.00 90 1062.7
20260830035132 55 202 1.7 2.6 0.00 0.18 0.00 90 1062.7
20260830034952 55 180 0.0 0.0 0.00 0.18 0.00 90 1072.1
20260830034453 55 157 0.0 0.9 0.00 0.18 0.00 90 1043.8
20260830034252 55 180 0.0 2.6 0.00 0.18 0.00 90 1056.4
20260830033953 55 157 0.0 2.6 0.00 0.18 0.00 90 1075.3
20260830033453 55 202 1.7 1.7 0.00 0.18 0.00 90 1062.7
20260830032953 55 157 0.9 1.7 0.00 0.18 0.00 90 1065.8
20260830032453 55 202 1.7 2.6 0.00 0.18 0.00 90 1062.7
20260830032216 55 135 1.7 2.6 0.00 0.18 0.00 90 1069.0
20260830032114 55 135 1.7 2.6 0.00 0.18 0.00 90 1069.0
20260830032029 55 135 1.7 2.6 0.00 0.18 0.00 90 1069.0
20260830031953 55 135 1.7 2.6 0.00 0.18 0.00 90 1069.0
20260830031747 55 180 0.0 1.7 0.00 0.18 0.00 90 1043.8
20260830031711 55 180 0.0 1.7 0.00 0.18 0.00 90 1043.8
20260830031453 55 180 0.0 1.7 0.00 0.18 0.00 90 1043.8
20260830031230 55 202 1.7 1.7 0.00 0.18 0.00 90 1062.7
20260830031149 55 202 1.7 1.7 0.00 0.18 0.00 89 1072.1
20260830030952 55 202 1.7 1.7 0.00 0.18 0.00 90 1062.7
20260830030453 55 202 1.7 1.7 0.00 0.18 0.00 89 1072.1
20260830030026 55 202 0.9 1.7 0.00 0.18 0.00 89 1043.8
20260830025953 55 202 0.9 1.7 0.00 0.18 0.00 89 1043.8
20260830025453 55 202 0.0 1.7 0.00 0.18 0.00 89 1044.8